Time,TemperatureF,DewpointF,PressureIn,WindDirection,WindDirectionDegrees,WindSpeedMPH,WindSpeedGustMPH,Humidity,HourlyPrecipIn,Conditions,Clouds,dailyrainin,SolarRadiationWatts/m^2,SoftwareType,DateUTC
2013-07-11 00:01:00,67.0,67.0,30.36,ESE,120,4.0,7.0,99,0.00,,,0.00,0.000000,,2013-07-11 04:01:00,
2013-07-11 00:32:00,68.0,68.0,30.36,SSW,213,2.0,6.0,99,0.01,,,0.01,0.000000,,2013-07-11 04:32:00,
2013-07-11 00:43:00,68.0,68.0,30.36,SSW,213,2.0,6.0,99,0.01,,,0.01,0.000000,,2013-07-11 04:43:00,
2013-07-11 00:53:00,68.0,68.0,30.36,SSW,213,2.0,6.0,99,0.01,,,0.01,0.000000,,2013-07-11 04:53:00,
2013-07-11 01:02:00,68.0,68.0,30.36,SSW,213,2.0,6.0,99,0.01,,,0.01,0.000000,,2013-07-11 05:02:00,
2013-07-11 01:32:00,67.0,67.0,30.36,ENE,64,1.0,2.0,100,0.00,,,0.01,0.000000,,2013-07-11 05:32:00,
2013-07-11 01:43:00,67.0,67.0,30.36,ENE,64,1.0,2.0,100,0.00,,,0.01,0.000000,,2013-07-11 05:43:00,
2013-07-11 01:52:00,67.0,67.0,30.36,ENE,64,1.0,2.0,100,0.00,,,0.01,0.000000,,2013-07-11 05:52:00,
2013-07-11 02:01:00,67.0,67.0,30.36,ENE,64,1.0,2.0,100,0.00,,,0.01,0.000000,,2013-07-11 06:01:00,
2013-07-11 02:32:00,65.0,65.0,30.35,NNE,23,1.0,2.0,100,0.00,,,0.01,0.000000,,2013-07-11 06:32:00,
2013-07-11 02:43:00,65.0,65.0,30.35,NNE,23,1.0,2.0,100,0.00,,,0.01,0.000000,,2013-07-11 06:43:00,
2013-07-11 02:53:00,65.0,65.0,30.35,NNE,23,1.0,2.0,100,0.00,,,0.01,0.000000,,2013-07-11 06:53:00,
2013-07-11 03:02:00,65.0,65.0,30.35,NNE,23,1.0,2.0,100,0.00,,,0.01,0.000000,,2013-07-11 07:02:00,
2013-07-11 03:32:00,67.0,67.0,30.35,North,357,1.0,2.0,100,0.00,,,0.01,0.000000,,2013-07-11 07:32:00,
2013-07-11 03:45:00,67.0,67.0,30.35,North,357,1.0,2.0,100,0.00,,,0.01,0.000000,,2013-07-11 07:45:00,
2013-07-11 03:53:00,67.0,67.0,30.35,North,357,1.0,2.0,100,0.00,,,0.01,0.000000,,2013-07-11 07:53:00,
2013-07-11 04:02:00,67.0,67.0,30.35,North,357,1.0,2.0,100,0.00,,,0.01,0.000000,,2013-07-11 08:02:00,
2013-07-11 04:34:00,65.0,65.0,30.35,ESE,123,1.0,2.0,100,0.00,,,0.01,0.000000,,2013-07-11 08:34:00,
2013-07-11 04:43:00,65.0,65.0,30.35,ESE,123,1.0,2.0,100,0.00,,,0.01,0.000000,,2013-07-11 08:43:00,
2013-07-11 04:53:00,65.0,65.0,30.35,ESE,123,1.0,2.0,100,0.00,,,0.01,0.000000,,2013-07-11 08:53:00,
2013-07-11 05:03:00,65.0,65.0,30.35,ESE,123,1.0,2.0,100,0.00,,,0.01,0.000000,,2013-07-11 09:03:00,
2013-07-11 05:43:00,66.0,66.0,30.34,North,3,1.0,2.0,100,0.00,,,0.01,0.000000,,2013-07-11 09:43:00,
2013-07-11 05:53:00,66.0,66.0,30.34,North,3,1.0,2.0,100,0.00,,,0.01,0.000000,,2013-07-11 09:53:00,
2013-07-11 06:01:00,66.0,66.0,30.34,North,3,1.0,2.0,100,0.00,,,0.01,0.000000,,2013-07-11 10:01:00,
2013-07-11 06:33:00,65.0,65.0,30.35,North,1,1.0,3.0,100,0.00,,,0.01,0.000000,,2013-07-11 10:33:00,
2013-07-11 06:43:00,65.0,65.0,30.35,North,1,1.0,3.0,100,0.00,,,0.01,0.000000,,2013-07-11 10:43:00,
2013-07-11 06:52:00,65.0,65.0,30.35,North,1,1.0,3.0,100,0.00,,,0.01,0.000000,,2013-07-11 10:52:00,
2013-07-11 07:02:00,65.0,65.0,30.35,North,1,1.0,3.0,100,0.00,,,0.01,0.000000,,2013-07-11 11:02:00,
2013-07-11 07:33:00,67.0,67.0,30.37,WSW,257,1.0,3.0,100,0.00,,,-99.99,6.000000,,2013-07-11 11:33:00,
2013-07-11 07:43:00,67.0,67.0,30.37,WSW,257,1.0,3.0,100,0.00,,,-99.99,6.000000,,2013-07-11 11:43:00,
2013-07-11 07:53:00,67.0,67.0,30.37,WSW,257,1.0,3.0,100,0.00,,,-99.99,6.000000,,2013-07-11 11:53:00,
2013-07-11 08:01:00,67.0,67.0,30.37,WSW,257,1.0,3.0,100,0.00,,,-99.99,6.000000,,2013-07-11 12:01:00,
2013-07-11 08:33:00,68.0,68.0,30.36,West,269,1.0,3.0,100,0.00,,,-99.99,51.000000,,2013-07-11 12:33:00,
2013-07-11 08:43:00,68.0,68.0,30.36,West,269,1.0,3.0,100,0.00,,,-99.99,51.000000,,2013-07-11 12:43:00,
2013-07-11 08:57:00,68.0,68.0,30.36,West,269,1.0,3.0,100,0.00,,,-99.99,51.000000,,2013-07-11 12:57:00,
2013-07-11 09:02:00,68.0,68.0,30.36,West,269,1.0,3.0,100,0.00,,,-99.99,51.000000,,2013-07-11 13:02:00,
2013-07-11 09:47:00,67.0,67.0,30.37,WSW,254,1.0,3.0,100,0.00,,,0.01,55.000000,,2013-07-11 13:47:00,
2013-07-11 09:55:00,67.0,67.0,30.37,WSW,254,1.0,3.0,100,0.00,,,0.01,55.000000,,2013-07-11 13:55:00,
2013-07-11 10:47:00,70.0,70.0,30.36,NW,308,1.0,3.0,100,0.00,,,0.01,138.000000,,2013-07-11 14:47:00,
2013-07-11 10:55:00,70.0,70.0,30.36,NW,308,1.0,3.0,100,0.00,,,0.01,138.000000,,2013-07-11 14:55:00,
2013-07-11 11:06:00,70.0,70.0,30.36,NW,308,1.0,3.0,100,0.00,,,0.01,138.000000,,2013-07-11 15:06:00,
2013-07-11 11:48:00,76.0,71.0,30.35,SSW,196,1.0,5.0,84,0.00,,,0.01,299.000000,,2013-07-11 15:48:00,
2013-07-11 11:59:00,76.0,71.0,30.35,SSW,196,1.0,5.0,84,0.00,,,0.01,299.000000,,2013-07-11 15:59:00,
2013-07-11 12:06:00,76.0,71.0,30.35,SSW,196,1.0,5.0,84,0.00,,,0.01,299.000000,,2013-07-11 16:06:00,
2013-07-11 12:36:00,79.0,70.0,30.35,WSW,242,2.0,7.0,74,0.00,,,0.01,540.000000,,2013-07-11 16:36:00,
2013-07-11 12:49:00,79.0,70.0,30.35,WSW,242,2.0,7.0,74,0.00,,,0.01,540.000000,,2013-07-11 16:49:00,
2013-07-11 12:56:00,79.0,70.0,30.35,WSW,242,2.0,7.0,74,0.00,,,0.01,540.000000,,2013-07-11 16:56:00,
2013-07-11 13:03:00,79.0,70.0,30.35,WSW,242,2.0,7.0,74,0.00,,,0.01,540.000000,,2013-07-11 17:03:00,
2013-07-11 13:40:00,81.0,70.0,30.33,WSW,252,2.0,7.0,69,0.00,,,0.01,459.000000,,2013-07-11 17:40:00,
2013-07-11 13:56:00,81.0,70.0,30.33,WSW,252,2.0,7.0,69,0.00,,,0.01,459.000000,,2013-07-11 17:56:00,
2013-07-11 14:05:00,81.0,70.0,30.33,WSW,252,2.0,7.0,69,0.00,,,0.01,459.000000,,2013-07-11 18:05:00,
2013-07-11 14:49:00,80.0,68.0,30.32,SW,218,2.0,6.0,68,0.00,,,0.01,544.000000,,2013-07-11 18:49:00,
2013-07-11 14:56:00,80.0,68.0,30.32,SW,218,2.0,6.0,68,0.00,,,0.01,544.000000,,2013-07-11 18:56:00,
2013-07-11 15:05:00,80.0,68.0,30.32,SW,218,2.0,6.0,68,0.00,,,0.01,544.000000,,2013-07-11 19:05:00,
2013-07-11 15:47:00,81.0,70.0,30.30,West,281,3.0,10.0,70,0.00,,,0.01,540.000000,,2013-07-11 19:47:00,
2013-07-11 15:57:00,81.0,70.0,30.30,West,281,3.0,10.0,70,0.00,,,0.01,540.000000,,2013-07-11 19:57:00,
2013-07-11 16:06:00,81.0,70.0,30.30,West,281,3.0,10.0,70,0.00,,,0.01,540.000000,,2013-07-11 20:06:00,
2013-07-11 16:40:00,79.0,70.0,30.30,WSW,238,3.0,14.0,73,0.00,,,0.01,384.000000,,2013-07-11 20:40:00,
2013-07-11 16:50:00,79.0,70.0,30.30,WSW,238,3.0,14.0,73,0.00,,,0.01,384.000000,,2013-07-11 20:50:00,
2013-07-11 16:56:00,79.0,70.0,30.30,WSW,238,3.0,14.0,73,0.00,,,0.01,384.000000,,2013-07-11 20:56:00,
2013-07-11 17:05:00,79.0,70.0,30.30,WSW,238,3.0,14.0,73,0.00,,,0.01,384.000000,,2013-07-11 21:05:00,
2013-07-11 17:46:00,78.0,69.0,30.28,NNE,25,2.0,12.0,73,0.00,,,0.01,353.000000,,2013-07-11 21:46:00,
2013-07-11 17:58:00,78.0,69.0,30.28,NNE,25,2.0,12.0,73,0.00,,,0.01,353.000000,,2013-07-11 21:58:00,
2013-07-11 18:05:00,78.0,69.0,30.28,NNE,25,2.0,12.0,73,0.00,,,0.01,353.000000,,2013-07-11 22:05:00,
2013-07-11 18:36:00,83.0,68.0,30.27,NW,312,3.0,10.0,61,0.00,,,-99.99,584.000000,,2013-07-11 22:36:00,
2013-07-11 18:49:00,83.0,68.0,30.27,NW,312,3.0,10.0,61,0.00,,,-99.99,584.000000,,2013-07-11 22:49:00,
2013-07-11 18:55:00,83.0,68.0,30.27,NW,312,3.0,10.0,61,0.00,,,-99.99,584.000000,,2013-07-11 22:55:00,
2013-07-11 19:06:00,83.0,68.0,30.27,NW,312,3.0,10.0,61,0.00,,,-99.99,584.000000,,2013-07-11 23:06:00,
2013-07-11 19:37:00,82.0,68.0,30.26,WNW,284,2.0,7.0,63,0.00,,,0.01,433.000000,,2013-07-11 23:37:00,
2013-07-11 19:47:00,82.0,68.0,30.26,WNW,284,2.0,7.0,63,0.00,,,0.01,433.000000,,2013-07-11 23:47:00,
2013-07-11 20:00:00,82.0,68.0,30.26,WNW,284,2.0,7.0,63,0.00,,,0.01,433.000000,,2013-07-12 00:00:00,
2013-07-11 20:05:00,82.0,68.0,30.26,WNW,284,2.0,7.0,63,0.00,,,0.01,433.000000,,2013-07-12 00:05:00,
2013-07-11 20:37:00,75.0,67.0,30.28,WSW,252,1.0,10.0,77,0.00,,,0.01,228.000000,,2013-07-12 00:37:00,
2013-07-11 20:46:00,75.0,67.0,30.28,WSW,252,1.0,10.0,77,0.00,,,0.01,228.000000,,2013-07-12 00:46:00,
2013-07-11 20:58:00,75.0,67.0,30.28,WSW,252,1.0,10.0,77,0.00,,,0.01,228.000000,,2013-07-12 00:58:00,
2013-07-11 21:05:00,75.0,67.0,30.28,WSW,252,1.0,10.0,77,0.00,,,0.01,228.000000,,2013-07-12 01:05:00,
2013-07-11 21:49:00,70.0,67.0,30.28,North,351,1.0,4.0,89,0.00,,,0.01,15.000000,,2013-07-12 01:49:00,
2013-07-11 21:56:00,70.0,67.0,30.28,North,351,1.0,4.0,89,0.00,,,0.01,15.000000,,2013-07-12 01:56:00,
2013-07-11 22:07:00,70.0,67.0,30.28,North,351,1.0,4.0,89,0.00,,,0.01,15.000000,,2013-07-12 02:07:00,
2013-07-11 22:36:00,69.0,67.0,30.29,WNW,297,1.0,3.0,92,0.00,,,0.01,0.000000,,2013-07-12 02:36:00,
2013-07-11 22:46:00,69.0,67.0,30.29,WNW,297,1.0,3.0,92,0.00,,,0.01,0.000000,,2013-07-12 02:46:00,
2013-07-11 22:55:00,69.0,67.0,30.29,WNW,297,1.0,3.0,92,0.00,,,0.01,0.000000,,2013-07-12 02:55:00,
2013-07-11 23:04:00,69.0,67.0,30.29,WNW,297,1.0,3.0,92,0.00,,,0.01,0.000000,,2013-07-12 03:04:00,
2013-07-11 23:47:00,69.0,66.0,30.30,ENE,66,1.0,10.0,90,0.00,,,0.01,0.000000,,2013-07-12 03:47:00,
2013-07-11 23:56:00,69.0,66.0,30.30,ENE,66,1.0,10.0,90,0.00,,,0.01,0.000000,,2013-07-12 03:56:00,